Location: Drocourt
(49.0571°N, 1.7669°E)
Time: 23:04:02
(UTC+00:00)

Cosmos 2221 - Pass Details

Date: 09 February 2023
Orbit: 588 x 611 km, 82.5° (Epoch: 01 April)

Event Time Altitude Azimuth Distance (km) Brightness Sun altitude
Rises 19:32:20 0° 352° (N) 2,880 6.2 -24.9°
Reaches altitude 10° 19:34:35 10° 356° (N) 1,974 5.2 -25.2°
Enters shadow 19:36:03 21° 2° (N) 1,405 4.4 -25.5°
